Regional Weather Roundup
Issued by NWS Spokane, WA

Current Version | Previous Version | Text Only | Print | Product List | Glossary On
Versions: 1 2 3 4 5 6 7 8 9 10 11 12 13 14 15 16 17 18 19 20 21 22 23 24 25 26 27 28 29 30 31 32 33 34 35 36 37 38 39 40 41 42 43 44 45 46 47 48 49 50
000
NZUS01 KOTX 250310
RWROTX
EASTERN WASHINGTON/NORTHERN IDAHO ROUNDUP
NATIONAL WEATHER SERVICE, SPOKANE WA
700 PM PST WED DEC 24 2014

Note: "fair" indicated few or no clouds below 12,000 feet with no
significant weather and/or obstructions to visibility.

...NORTHEAST WASHINGTON AND NORTHERN IDAHO PANHANDLE...

CITY           SKY/WX    TMP DP  RH WIND       PRES   REMARKS
SPOKANE INTL   CLOUDY    35  32  88 W8        29.69R WCI  29
SPOKANE DOWNTO CLOUDY    38  35  89 NW3       29.71R
COEUR D ALENE  CLOUDY    36  34  93 W3        29.68R
DEER PARK      CLOUDY    33  31  92 CALM      29.69R
SANDPOINT      CLOUDY    32  32 100 CALM      29.69R

...SOUTHEAST WASHINGTON AND SOUTHERN IDAHO PANHANDLE...

CITY           SKY/WX    TMP DP  RH WIND       PRES   REMARKS
WALLA WALLA    LGT RAIN  39  36  89 S10       29.80R
PULLMAN/MOSCOW LGT SNOW  33  32  96 W15       29.71S VSB 3/4 WCI  23
LEWISTON       CLOUDY    38  34  85 W9        29.73S
LOWELL           N/A     36  35  96 CALM      29.71R

...COLUMBIA BASIN...

CITY           SKY/WX    TMP DP  RH WIND       PRES   REMARKS
EPHRATA        CLEAR     42  23  46 NW14      29.78R
MOSES LAKE     CLEAR     36  26  67 N9        29.80R
TRI CITIES     CLEAR     41  30  65 W13       29.84R
HERMISTON      CLEAR     38  33  82 SW10      29.85R
PENDLETON      PTCLDY    35  32  88 W21       29.81R WCI  24

...EAST SLOPES CASCADES...

CITY           SKY/WX    TMP DP  RH WIND       PRES   REMARKS
THE DALLES     MOCLDY    45  35  68 W8        29.91R
YAKIMA         CLEAR     40  23  50 N8        29.85R
ELLENSBURG     CLEAR     38  27  64 NW13      29.82R
WENATCHEE      CLEAR     42  24  49 NW16      29.81R
OMAK           CLEAR     34  30  85 NW8       29.81R WCI  27

...SOUTHERN BRITISH COLUMBIA...

CITY           SKY/WX    TMP DP  RH WIND       PRES   REMARKS
PENTICTON      MOCLDY    32  30  93 VRB3      29.85R
CRANBROOK      MOCLDY    27  25  93 N8        29.68R WCI  18

...WESTERN MONTANA...

CITY           SKY/WX    TMP DP  RH WIND       PRES   REMARKS
MISSOULA       LGT RAIN  34  32  92 NW10      29.56R WCI  26

...NEIGHBORING CITIES...

CITY           SKY/WX    TMP DP  RH WIND       PRES   REMARKS
SEATTLE        CLOUDY    44  37  76 CALM      29.98R
CALGARY        MOCLDY    25  14  63 N8        29.66R WCI  16



USA.gov is the U.S. government's official web portal to all federal, state and local government web resources and services.